Regional Weather Roundup
Issued by NWS Sterling, VA

Home | Current Version | Previous Version | Graphics & Text | Print | Product List | Glossary On
Versions: 1 2 3 4 5 6 7 8 9 10 11 12 13 14 15 16 17 18 19 20 21 22 23 24 25 26 27 28 29 30 31 32 33 34 35 36 37 38 39 40 41 42 43 44 45 46 47 48 49 50
448
ASUS41 KLWX 250011
RWRLWX

REGIONAL WEATHER ROUNDUP
NATIONAL WEATHER SERVICE BALTIMORE MD/WASHINGTON DC
700 PM EST SAT FEB 24 2018

Note: "FAIR" indicates few or no clouds below 12,000 feet
with no significant weather and/or obstructions to visibility.
 TC=TEMPERATURE CELSIUS

 * =Non NWS site. Station does not report precipitation (e.g. rain,
    snow, etc.), thunder, or fog.

DCZ001-MDZ009-015-VAZ040>042-051-053>054-250100-
WASHINGTON METRO

CITY           SKY/WX    TMP DP  RH WIND       PRES   REMARKS
WASHINGTON NAT CLOUDY    51  48  89 NE12      30.16R
DULLES         CLOUDY    49  47  93 NE9       30.15R
ANDREWS AFB    CLOUDY    48  48 100 NE8       30.14R
FT BELVOIR     CLOUDY    50  48  92 N3        30.14R
QUANTICO       CLOUDY    51  50  96 NE10      30.15R
COLLEGE PARK*  CLOUDY    49  45  85 NE3       30.16R
LEESBURG*      CLOUDY    45  45 100 NE3       30.17R FOG
MANASSAS*      LGT RAIN  50  48  93 NE10      30.14R
GAITHERSBURG*  CLOUDY    47  45  93 VRB3      30.17R

$$

MDZ006>007-011-014-250100-
BALTIMORE METRO

CITY           SKY/WX    TMP DP  RH WIND       PRES   REMARKS
BWI AIRPORT    CLOUDY    48  46  93 NE9       30.15R
MD SCIENCE CTR   N/A     52  45  77 MISG      30.17R
MARTIN STATE   CLOUDY    52  48  87 N6        30.17R
ANNAPOLIS      CLOUDY    51  49  92 CALM      30.15R
FORT MEADE*    CLOUDY    48  45  87 E5        30.18R

$$

MDZ012-015-019>023-250100-
MARYLAND EASTERN SHORE

CITY           SKY/WX    TMP DP  RH WIND       PRES   REMARKS
OCEAN CITY     FOG       45  45 100 NE9       30.14S VSB 3/4
SALISBURY      CLOUDY    50  49  96 E12       30.13S FOG
CAMBRIDGE*     CLOUDY    52  48  87 NE7G14    30.14R
EASTON*        MOCLDY    50  48  93 E9        30.17S

$$

MDZ017>025-250100-
SOUTHERN MARYLAND

CITY           SKY/WX    TMP DP  RH WIND       PRES   REMARKS
PATUXENT RIVER CLOUDY    49  49 100 N7        30.14R FOG
ST INIGOES     RAIN      51  51 100 NE8       30.13R FOG
LEONARDTOWN*   CLOUDY    50  48  93 CALM      30.15R

$$

MDZ003>005-250100-
NORTH CENTRAL MARYLAND

CITY           SKY/WX    TMP DP  RH WIND       PRES   REMARKS
FREDERICK*     CLOUDY    50  50 100 CALM      30.19R
HAGERSTOWN APT LGT RAIN  47  46  97 N3        30.16R FOG
WESTMINSTER*   CLOUDY    46  46 100 E7        30.14F

$$

MDZ501>502-250100-
WESTERN MARYLAND

CITY           SKY/WX    TMP DP  RH WIND       PRES   REMARKS
OAKLAND*       CLOUDY    39  39 100 SE17G24   30.07R VSB 1/4 WCI  30
CUMBERLAND*    CLOUDY    46  46 100 S6        30.18F

$$

VAZ025>031-250100-
SHENANDOAH VALLEY

CITY           SKY/WX    TMP DP  RH WIND       PRES   REMARKS
WINCHESTER*    DRIZZLE   45  45 100 CALM      30.17R
FRONT ROYAL*   CLOUDY    46  46 100 CALM      30.14R
LURAY*         RAIN      48  48 100 N7        30.12R
NEW MARKET*    CLOUDY    47  46  97 NE12      30.11S
STAUNTON*      CLOUDY    50  48  94 N9        30.11R
WAYNESBORO*    CLOUDY    55  54  97 N9        30.07R

$$

WVZ021-048>050-054>055-250100-
EASTERN WEST VIRGINIA PANHANDLE

CITY           SKY/WX    TMP DP  RH WIND       PRES   REMARKS
MARTINSBURG    LGT RAIN  47  46  97 CALM      30.15R FOG
PETERSBURG*    RAIN      48  46  93 N6        30.14R

$$

VAZ036>039-050-250100-
CENTRAL FOOTHILLS

CITY           SKY/WX    TMP DP  RH WIND       PRES   REMARKS
CHARLOTTESVILL CLOUDY    53  51  93 NE10      30.10R
CULPEPER*      LGT RAIN  52  49  90 NE5       30.14R
ORANGE*        CLOUDY    50  50 100 N9        30.12R FOG
GORDONSVILLE*  CLOUDY    51  51 100 NE12      30.11R FOG
WARRENTON*     CLOUDY    51  48  89 NE3       30.13R

$$

VAZ055>057-250100-
NORTH AND CENTRAL PIEDMONT

CITY           SKY/WX    TMP DP  RH WIND       PRES   REMARKS
FREDERICKSBRG* LGT RAIN  52  52 100 N7        30.12R
STAFFORD*      CLOUDY    51  51 100 NE7       30.17R FOG

$$

NCZ024-NYZ072-PAZ021-071-VAZ022-071-250100-
OTHER REGIONAL OBSERVATIONS

CITY           SKY/WX    TMP DP  RH WIND       PRES   REMARKS
NEW YORK CITY  CLOUDY    47  44  90 N5        30.20S
PHILADELPHIA   CLOUDY    48  45  89 NE9       30.17F
PITTSBURGH     CLOUDY    47  45  93 NE8       30.04S
ROANOKE        CLOUDY    66  60  81 CALM      30.05R
RICHMOND       CLOUDY    66  59  78 NE15      30.07R
RALEIGH        MOCLDY    72  59  63 S8        30.08R

$$

ANZ530>537-250100-
MARINE OBSERVATIONS

STATION/POSITION TIME  TEMP    WIND        PRES
                       AIR SEA DIR/SP/G
                 (UTC) (F)     (DEG/KT/KT) (MB)
THOMAS PT LIGHT  0000   47 43   20/  4/  5   N/A
BALT KEY BRIDGE  2336   49      60/  6/  7 1020.9R
COVE POINT       2336   49      40/  8/ 10 1020.9R
LEWISETTA        2336   50 49  350/  4/  6 1019.6R
SOLOMONS ISLAND  2336   50 44   20/  7/ 10 1019.9R
PINEY POINT      2348           50/  5/  6   N/A

$$





USA.gov is the U.S. government's official web portal to all federal, state and local government web resources and services.